Location: Newark
(59.4564°N, 26.6917°E)
Time: 14:37:43
(UTC+00:00)

Explorer 7 - Visible Passes

Search period start: 18 November 2019 00:00
Search period end: 28 November 2019 00:00
Orbit: 485 x 680 km, 50.3° (Epoch: 17 November)

Date Brightness Start Highest point End Pass type
(mag) Time Alt. Az. Time Alt. Az. Time Alt. Az.
18 Nov 9.2 02:31:43 15° SSE 02:31:43 15° SSE 02:32:40 10° SE visible
18 Nov 9.1 04:08:02 11° SW 04:08:57 11° SSW 04:10:18 10° SSW visible
19 Nov 9.4 02:36:38 13° SSE 02:36:38 13° SSE 02:37:13 10° SSE visible
20 Nov 9.5 02:41:36 10° SSE 02:41:36 10° SSE 02:41:37 10° SSE visible
